Change the Weather History Date:

Tuesday, October 14, 2014

  Actual Average Record
Temperature  
Mean Temperature 68 °F -  
Max Temperature 78 °F 67 °F 86 °F (1969)
Min Temperature 59 °F 42 °F 24 °F (1937)
Cooling Degree Days 3    
Growing Degree Days 18 (Base 50)    
Moisture  
Dew Point 59 °F    
Average Humidity 82    
Maximum Humidity 94    
Minimum Humidity 52    
Precipitation  
Precipitation 0.71 in - - ()
Sea Level Pressure  
Sea Level Pressure 29.73 in    
Wind  
Wind Speed 10 mph (South)    
Max Wind Speed 24 mph    
Max Gust Speed 37 mph    
Visibility 6 miles    
Events Rain    
Averages and records for this station are not official NWS values.
T = Trace of Precipitation, MM = Missing Value Source: NWS Daily Summary

Daily Weather History Graph

Daily Weather History Graph

Search for Another Location

Airport or City:

Trip Planner

Search our weather history database for the weather conditions in past years. The results will help you decide how hot, cold, wet, or windy it might be!

Date:

Astronomy

Oct. 14, 2014 Rise Set
Actual Time 7:39 AM EDT 6:52 PM EDT
Civil Twilight 7:12 AM EDT 7:19 PM EDT
Nautical Twilight 6:41 AM EDT 7:51 PM EDT
Astronomical Twilight 6:10 AM EDT 8:22 PM EDT
Moon 11:57 PM EDT (10/14) 1:39 PM EDT (10/14)
Length of Visible Light 12h 07m
Length of Day
11h 12m
Waning Gibbous, 61% of the Moon is Illuminated
Oct 14
Waning Gibbous
Oct 15
Last Quarter
Oct 23
New
Oct 30
First Quarter
Nov 6
Full

Hourly Weather History & Observations

Time (EDT) Temp. Dew Point Humidity Pressure Visibility Wind Dir Wind Speed Gust Speed Precip Events Conditions
12:53 AM 69.1 °F 57.0 °F 65% 29.87 in 10.0 mi SSE 15.0 mph - N/A   Clear
1:53 AM 69.1 °F 55.9 °F 63% 29.85 in 10.0 mi SE 11.5 mph 20.7 mph N/A   Scattered Clouds
2:53 AM 68.0 °F 55.9 °F 65% 29.83 in 10.0 mi SE 10.4 mph 19.6 mph N/A   Scattered Clouds
3:53 AM 68.0 °F 55.9 °F 65% 29.80 in 10.0 mi SE 13.8 mph - N/A   Mostly Cloudy
4:53 AM 68.0 °F 57.0 °F 68% 29.79 in 10.0 mi SSE 11.5 mph - N/A   Overcast
5:53 AM 68.0 °F 57.9 °F 70% 29.78 in 10.0 mi SSE 9.2 mph - 0.00 in   Overcast
6:53 AM 66.9 °F 59.0 °F 76% 29.80 in 10.0 mi South 9.2 mph - 0.00 in Rain Light Rain
7:53 AM 66.9 °F 59.0 °F 76% 29.81 in 10.0 mi SW 5.8 mph - 0.00 in   Overcast
8:53 AM 66.0 °F 61.0 °F 84% 29.81 in 10.0 mi SE 4.6 mph - 0.00 in   Overcast
9:53 AM 66.0 °F 62.1 °F 87% 29.79 in 10.0 mi SE 10.4 mph - 0.03 in Rain Light Rain
10:53 AM 68.0 °F 61.0 °F 78% 29.74 in 10.0 mi SSE 13.8 mph 25.3 mph 0.00 in   Overcast
11:53 AM 70.0 °F 61.0 °F 73% 29.67 in 10.0 mi SE 19.6 mph 31.1 mph 0.00 in   Scattered Clouds
12:53 PM 73.0 °F 61.0 °F 66% 29.67 in 10.0 mi SSE 19.6 mph 27.6 mph N/A   Clear
1:53 PM 75.9 °F 59.0 °F 56% 29.64 in 10.0 mi SSE 24.2 mph 33.4 mph N/A   Mostly Cloudy
2:53 PM 77.0 °F 59.0 °F 54% 29.62 in 10.0 mi SSE 23.0 mph 36.8 mph N/A   Mostly Cloudy
3:53 PM 77.0 °F 57.9 °F 52% 29.62 in 10.0 mi South 17.3 mph 27.6 mph N/A   Overcast
4:53 PM 70.0 °F 62.1 °F 76% 29.65 in 5.0 mi WSW 16.1 mph 21.9 mph 0.01 in Rain Light Rain
5:02 PM 64.0 °F 61.0 °F 90% 29.67 in 2.0 mi West 10.4 mph 21.9 mph 0.03 in Rain Rain
5:12 PM 64.0 °F 61.0 °F 90% 29.68 in 3.0 mi West 8.1 mph - 0.05 in Rain Light Rain
5:33 PM 63.0 °F 60.1 °F 90% 29.69 in 3.0 mi WNW 6.9 mph - 0.08 in Rain Rain
5:38 PM 63.0 °F 60.1 °F 90% 29.69 in 2.0 mi WNW 4.6 mph - 0.09 in Rain Rain
5:42 PM 63.0 °F 60.1 °F 90% 29.69 in 1.5 mi West 5.8 mph - 0.10 in Rain Rain
5:53 PM 62.1 °F 60.1 °F 93% 29.69 in 0.8 mi Calm Calm - 0.17 in Rain Heavy Rain
6:00 PM 62.1 °F 60.1 °F 93% 29.69 in 1.2 mi NNW 5.8 mph - 0.02 in Rain Rain
6:03 PM 62.1 °F 60.1 °F 93% 29.70 in 2.0 mi NW 8.1 mph - 0.02 in Rain Rain
6:31 PM 61.0 °F 59.0 °F 93% 29.72 in 1.0 mi WNW 4.6 mph - 0.11 in Rain Heavy Rain
6:40 PM 61.0 °F 59.0 °F 93% 29.72 in 1.8 mi West 4.6 mph - 0.13 in Rain Rain
6:53 PM 61.0 °F 57.9 °F 90% 29.72 in 1.5 mi Calm Calm - 0.18 in Rain Rain
6:58 PM 60.1 °F 57.9 °F 93% 29.71 in 2.5 mi WNW 4.6 mph - 0.01 in Rain Rain
7:04 PM 60.1 °F 57.9 °F 93% 29.71 in 4.0 mi West 6.9 mph - 0.01 in Rain Light Rain
7:36 PM 61.0 °F 57.0 °F 87% 29.73 in 3.0 mi Variable 3.5 mph - 0.06 in Rain Rain
7:53 PM 60.1 °F 57.0 °F 90% 29.74 in 3.0 mi SSW 4.6 mph - 0.09 in Rain Rain
8:05 PM 60.1 °F 57.0 °F 90% 29.73 in 2.5 mi Calm Calm - 0.03 in Rain Heavy Rain
8:17 PM 60.1 °F 55.9 °F 86% 29.72 in 4.0 mi Calm Calm - 0.05 in Rain Light Rain
8:53 PM 59.0 °F 57.0 °F 93% 29.72 in 4.0 mi Calm Calm - 0.12 in Rain Rain
9:53 PM 59.0 °F 57.0 °F 93% 29.75 in 7.0 mi SE 4.6 mph - 0.04 in Rain Light Rain
10:36 PM 60.1 °F 57.9 °F 93% 29.76 in 10.0 mi SE 5.8 mph - 0.04 in   Overcast
10:53 PM 60.1 °F 57.9 °F 93% 29.77 in 10.0 mi SSE 5.8 mph - 0.04 in Rain Light Rain
11:24 PM 60.1 °F 57.0 °F 90% 29.79 in 10.0 mi SSE 6.9 mph - 0.02 in Rain Light Rain
11:48 PM 59.0 °F 57.2 °F 94% 29.77 in 10.0 mi SSE 4.6 mph - 0.03 in   Overcast
11:53 PM 59.0 °F 57.0 °F 93% 29.77 in 10.0 mi SSE 5.8 mph - 0.03 in   Overcast